Find STARLINK-37493

NORAD ID: 68910 Constellation: starlink operational
LEOCIRCULARRETROGRADE

实时位置

正在加载3D地球...

关于 STARLINK-37493

正在加载描述...

即将过境

Passes for default location (London). Set your location on the main map for personalized predictions.

高度历史

Loading altitude history...

两行轨道根数

1 68910U 26097R 26125.50001156 -.02066907 12174-2 -50157-2 0 9991
2 68910 97.2871 320.4944 0001442 80.9306 151.7294 15.96456136 2044
Epoch: May 5, 2026 • Age: 8 hours